Location: Olsztyn
(53.7767°N, 20.4765°E)
Time: 16:20:13
(UTC+02:00)

A-11 Canister half - Pass Details

Date: 27 January 2022
Orbit: 1513 x 1686 km, 47.2° (Epoch: 25 May)

Event Time Altitude Azimuth Distance (km) Brightness Sun altitude
Rises 21:39:41 0° 282° (WNW) 4,685 12.1 -46.4°
Reaches altitude 10° 21:43:05 10° 274° (W) 3,688 11.4 -46.8°
Enters shadow 21:47:02 24° 254° (WSW) 2,737 10.4 -47.2°
Maximum altitude 21:50:58 33° 215° (SW) 2,326 - -47.7°
Drops below altitude 10° 21:58:52 10° 156° (SSE) 3,678 - -48.5°
Sets 22:02:16 0° 147° (SSE) 4,671 - -48.8°
